| time (UTC) | temp F | wind direction | speed knots | gust knots | rain 1hr in | rain 24hr in | rain mn in | humidity % | barometer mb |
| 20260509021535 | 53 | 176 | 0.0 | 0.0 | 0.00 | 0.00 | 0.00 | 80 | 1013.0 |
| 20260509020035 | 54 | 176 | 0.0 | 0.0 | 0.00 | 0.00 | 0.00 | 78 | 1013.0 |
| 20260509014529 | 55 | 176 | 0.0 | 0.0 | 0.00 | 0.00 | 0.00 | 77 | 1012.9 |
| 20260509013030 | 56 | 176 | 0.0 | 0.0 | 0.00 | 0.00 | 0.00 | 75 | 1012.8 |
| 20260509011529 | 56 | 176 | 0.0 | 0.0 | 0.00 | 0.00 | 0.00 | 73 | 1012.6 |
| 20260509010035 | 57 | 176 | 0.0 | 0.0 | 0.00 | 0.00 | 0.00 | 70 | 1012.7 |
| 20260509004534 | 58 | 176 | 0.0 | 0.0 | 0.00 | 0.00 | 0.00 | 68 | 1012.6 |
| 20260509003028 | 59 | 176 | 0.0 | 0.0 | 0.00 | 0.00 | 0.00 | 66 | 1012.5 |
| 20260509001526 | 60 | 176 | 0.0 | 0.0 | 0.00 | 0.00 | 0.00 | 66 | 1012.5 |
| 20260509000025 | 61 | 176 | 0.0 | 0.0 | 0.00 | 0.00 | 0.00 | 63 | 1012.6 |
| 20260508234527 | 62 | 176 | 0.0 | 0.0 | 0.00 | 0.00 | 0.00 | 63 | 1012.5 |
| 20260508233025 | 63 | 176 | 0.0 | 0.0 | 0.00 | 0.00 | 0.00 | 63 | 1012.5 |
| 20260508231525 | 64 | 176 | 0.0 | 0.0 | 0.00 | 0.00 | 0.00 | 64 | 1012.5 |
| 20260508230024 | 64 | 176 | 0.0 | 0.0 | 0.00 | 0.00 | 0.00 | 64 | 1012.6 |
| 20260508224522 | 64 | 176 | 0.0 | 0.0 | 0.00 | 0.00 | 0.00 | 61 | 1012.7 |
| 20260508223035 | 64 | 176 | 0.0 | 0.0 | 0.00 | 0.00 | 0.00 | 56 | 1012.8 |
| 20260508221520 | 65 | 176 | 0.0 | 0.0 | 0.00 | 0.00 | 0.00 | 52 | 1012.8 |
| 20260508220022 | 65 | 176 | 0.0 | 0.0 | 0.00 | 0.00 | 0.00 | 52 | 1012.9 |
| 20260508214519 | 65 | 176 | 0.0 | 0.0 | 0.00 | 0.00 | 0.00 | 50 | 1012.9 |
| 20260508213020 | 65 | 176 | 0.0 | 0.0 | 0.00 | 0.00 | 0.00 | 50 | 1013.0 |
| 20260508211517 | 66 | 176 | 0.0 | 0.0 | 0.00 | 0.00 | 0.00 | 54 | 1012.8 |
| 20260508210015 | 66 | 176 | 0.0 | 0.0 | 0.00 | 0.00 | 0.00 | 51 | 1012.9 |
| 20260508204522 | 66 | 174 | 0.0 | 0.0 | 0.00 | 0.00 | 0.00 | 41 | 1012.9 |
| 20260508203013 | 67 | 174 | 0.0 | 0.0 | 0.00 | 0.00 | 0.00 | 50 | 1013.1 |
| 20260508201512 | 68 | 174 | 0.0 | 0.0 | 0.00 | 0.00 | 0.00 | 50 | 1013.3 |
| 20260508200009 | 68 | 186 | 0.0 | 0.0 | 0.00 | 0.00 | 0.00 | 46 | 1013.5 |
| 20260508194506 | 68 | 191 | 0.0 | 0.0 | 0.00 | 0.00 | 0.00 | 49 | 1013.9 |
| 20260508193003 | 68 | 197 | 0.0 | 0.0 | 0.00 | 0.00 | 0.00 | 48 | 1014.5 |
| 20260508191500 | 69 | 196 | 0.0 | 0.0 | 0.00 | 0.00 | 0.00 | 41 | 1014.9 |
| 20260508190100 | 69 | 206 | 0.0 | 0.0 | 0.00 | 0.00 | 0.00 | 38 | 1014.9 |
| 20260508184608 | 69 | 46 | 0.0 | 0.0 | 0.00 | 0.00 | 0.00 | 44 | 1015.3 |
| 20260508183056 | 69 | 47 | 0.0 | 0.0 | 0.00 | 0.00 | 0.00 | 38 | 1015.4 |
| 20260508181601 | 68 | 192 | 0.0 | 0.0 | 0.00 | 0.00 | 0.00 | 35 | 1015.6 |
| 20260508180052 | 68 | 63 | 0.0 | 0.0 | 0.00 | 0.00 | 0.00 | 37 | 1015.7 |
| 20260508174555 | 68 | 152 | 0.0 | 0.0 | 0.00 | 0.00 | 0.00 | 40 | 1015.9 |
| 20260508173048 | 67 | 171 | 0.0 | 0.0 | 0.00 | 0.00 | 0.00 | 41 | 1016.1 |
| 20260508171547 | 67 | 112 | 0.0 | 0.0 | 0.00 | 0.00 | 0.00 | 40 | 1016.4 |
| 20260508170045 | 66 | 202 | 0.0 | 0.0 | 0.00 | 0.00 | 0.00 | 38 | 1016.7 |
| 20260508164543 | 66 | 202 | 0.0 | 0.0 | 0.00 | 0.00 | 0.00 | 41 | 1017.0 |
| 20260508163047 | 66 | 196 | 0.0 | 0.0 | 0.00 | 0.00 | 0.00 | 42 | 1017.4 |
| 20260508161541 | 65 | 197 | 0.0 | 0.0 | 0.00 | 0.00 | 0.00 | 46 | 1017.4 |
| 20260508160057 | 64 | 196 | 0.0 | 0.0 | 0.00 | 0.00 | 0.00 | 46 | 1017.7 |
| 20260508154534 | 63 | 196 | 0.0 | 0.0 | 0.00 | 0.00 | 0.00 | 53 | 1017.8 |
| 20260508153042 | 63 | 349 | 0.0 | 0.0 | 0.00 | 0.00 | 0.00 | 49 | 1018.1 |
| 20260508151530 | 62 | 81 | 0.0 | 0.0 | 0.00 | 0.00 | 0.00 | 53 | 1018.3 |
| 20260508150032 | 61 | 232 | 0.0 | 0.0 | 0.00 | 0.00 | 0.00 | 53 | 1018.4 |
| 20260508144523 | 60 | 311 | 0.0 | 0.0 | 0.00 | 0.00 | 0.00 | 54 | 1018.4 |
| 20260508143027 | 59 | 311 | 0.0 | 0.0 | 0.00 | 0.00 | 0.00 | 64 | 1018.5 |
| 20260508141517 | 57 | 35 | 0.0 | 0.0 | 0.00 | 0.00 | 0.00 | 71 | 1018.5 |
| 20260508140017 | 55 | 35 | 0.0 | 0.0 | 0.00 | 0.00 | 0.00 | 83 | 1018.5 |
| 20260508134515 | 53 | 35 | 0.0 | 0.0 | 0.00 | 0.00 | 0.00 | 94 | 1018.5 |
| 20260508133011 | 50 | 35 | 0.0 | 0.0 | 0.00 | 0.00 | 0.00 | 96 | 1018.5 |
| 20260508131559 | 49 | 35 | 0.0 | 0.0 | 0.00 | 0.00 | 0.00 | 97 | 1018.5 |
| 20260508130057 | 46 | 35 | 0.0 | 0.0 | 0.00 | 0.00 | 0.00 | 97 | 1018.4 |
| 20260508124552 | 44 | 35 | 0.0 | 0.0 | 0.00 | 0.00 | 0.00 | 97 | 1018.4 |
| 20260508123052 | 43 | 35 | 0.0 | 0.0 | 0.00 | 0.00 | 0.00 | 97 | 1018.5 |
| 20260508121604 | 41 | 35 | 0.0 | 0.0 | 0.00 | 0.00 | 0.00 | 97 | 1018.4 |
| 20260508120049 | 40 | 35 | 0.0 | 0.0 | 0.00 | 0.00 | 0.00 | 97 | 1018.2 |
| 20260508114547 | 39 | 35 | 0.0 | 0.0 | 0.00 | 0.00 | 0.00 | 96 | 1018.1 |
| 20260508113046 | 38 | 35 | 0.0 | 0.0 | 0.00 | 0.00 | 0.00 | 95 | 1017.8 |
| 20260508111541 | 37 | 35 | 0.0 | 0.0 | 0.00 | 0.00 | 0.00 | 95 | 1017.5 |
| 20260508110049 | 38 | 35 | 0.0 | 0.0 | 0.00 | 0.00 | 0.00 | 95 | 1017.4 |
| 20260508104536 | 38 | 35 | 0.0 | 0.0 | 0.00 | 0.00 | 0.00 | 95 | 1017.1 |
| 20260508103037 | 38 | 35 | 0.0 | 0.0 | 0.00 | 0.00 | 0.00 | 94 | 1017.0 |
| 20260508101536 | 39 | 35 | 0.0 | 0.0 | 0.00 | 0.00 | 0.00 | 95 | 1017.0 |
| 20260508100033 | 39 | 35 | 0.0 | 0.0 | 0.00 | 0.01 | 0.00 | 94 | 1016.8 |
| 20260508094529 | 39 | 35 | 0.0 | 0.0 | 0.00 | 0.01 | 0.00 | 95 | 1016.7 |
| 20260508093027 | 39 | 35 | 0.0 | 0.0 | 0.00 | 0.01 | 0.00 | 94 | 1016.6 |
| 20260508091525 | 40 | 35 | 0.0 | 0.0 | 0.00 | 0.01 | 0.00 | 95 | 1016.4 |
| 20260508090023 | 40 | 35 | 0.0 | 0.0 | 0.00 | 0.01 | 0.00 | 94 | 1016.4 |
| 20260508084523 | 40 | 35 | 0.0 | 0.0 | 0.00 | 0.01 | 0.00 | 95 | 1016.3 |
| 20260508083101 | 41 | 35 | 0.0 | 0.0 | 0.00 | 0.01 | 0.00 | 95 | 1016.2 |
| 20260508081518 | 41 | 35 | 0.0 | 0.0 | 0.00 | 0.01 | 0.00 | 94 | 1016.2 |
| 20260508080021 | 41 | 35 | 0.0 | 0.0 | 0.00 | 0.02 | 0.00 | 94 | 1016.2 |
| 20260508074516 | 42 | 35 | 0.0 | 0.0 | 0.00 | 0.02 | 0.00 | 94 | 1016.4 |
| 20260508073017 | 42 | 35 | 0.0 | 0.0 | 0.00 | 0.02 | 0.00 | 94 | 1016.4 |
| 20260508071512 | 42 | 35 | 0.0 | 0.0 | 0.00 | 0.02 | 0.00 | 94 | 1016.3 |
| 20260508070013 | 43 | 35 | 0.0 | 0.0 | 0.00 | 0.02 | 0.00 | 94 | 1016.4 |
| 20260508064534 | 43 | 35 | 0.0 | 0.0 | 0.00 | 0.02 | 0.00 | 94 | 1016.2 |
| 20260508063008 | 43 | 35 | 0.0 | 0.0 | 0.00 | 0.02 | 0.00 | 94 | 1016.3 |
| 20260508061507 | 44 | 35 | 0.0 | 0.0 | 0.00 | 0.02 | 0.00 | 94 | 1016.4 |
| 20260508060005 | 44 | 35 | 0.0 | 0.0 | 0.00 | 0.02 | 0.00 | 94 | 1016.5 |
| 20260508054504 | 44 | 35 | 0.0 | 0.0 | 0.00 | 0.02 | 0.00 | 94 | 1016.3 |
| 20260508053003 | 44 | 35 | 0.0 | 0.0 | 0.00 | 0.02 | 0.00 | 94 | 1016.3 |
| 20260508051502 | 45 | 35 | 0.0 | 0.0 | 0.00 | 0.02 | 0.00 | 94 | 1016.5 |
| 20260508050101 | 45 | 35 | 0.0 | 0.0 | 0.00 | 0.02 | 0.00 | 94 | 1016.3 |
| 20260508044559 | 46 | 35 | 0.0 | 0.0 | 0.00 | 0.02 | 0.00 | 94 | 1016.2 |
| 20260508043055 | 46 | 35 | 0.0 | 0.0 | 0.00 | 0.02 | 0.00 | 94 | 1016.0 |
| 20260508041558 | 46 | 35 | 0.0 | 0.0 | 0.00 | 0.02 | 0.00 | 94 | 1015.8 |
| 20260508040051 | 46 | 35 | 0.0 | 0.0 | 0.00 | 0.03 | 0.02 | 93 | 1015.7 |
| 20260508034554 | 47 | 35 | 0.0 | 0.0 | 0.00 | 0.03 | 0.02 | 93 | 1015.6 |
| 20260508033046 | 47 | 35 | 0.0 | 0.0 | 0.00 | 0.03 | 0.02 | 93 | 1015.6 |
| 20260508031544 | 48 | 35 | 0.0 | 0.0 | 0.00 | 0.03 | 0.02 | 93 | 1015.5 |
| 20260508030056 | 48 | 35 | 0.0 | 0.0 | 0.00 | 0.03 | 0.02 | 93 | 1015.3 |
| 20260508024552 | 48 | 35 | 0.0 | 0.0 | 0.00 | 0.03 | 0.02 | 93 | 1015.4 |
| 20260508023040 | 49 | 35 | 0.0 | 0.0 | 0.00 | 0.03 | 0.02 | 92 | 1015.4 |